Flag for Brazil Weather past 2 weeks in Cuiabá, Mato Grosso, Brazil

Now
82 °F

Clear.


Feels Like: 85 °F
Forecast: 73 / 98 °F
Wind: 5 mph from South

Location: Cuiaba Aeroporto

Current Time: Sep 16, 2014 at 9:52:13 PM

Latest Report: Sep 16, 2014 at 9:00 PM


Visibility: 10 mi

Pressure: 29.89 "Hg

Humidity: 62%

Dew point: 68 °F

Location of CuiabáLocation

Historic Weather in Cuiabá — Graph

°F

Cuiabá temperature yesterday

Maximum temperature yesterday: 95 °F (at 2:00 PM)
Minimum temperature yesterday: 75 °F (at 11:00 PM)
Average temperature yesterday: 85 °F

Past Weeks' High & Low Weather Summary

 TemperatureHumidityPressure
High104 °F (Sep 14, 3:00 PM)94% (Sep 5, 1:00 AM)30.04 "Hg (Sep 5, 1:00 AM)
Low70 °F (Sep 5, 4:00 AM)17% (Sep 9, 1:00 PM)29.74 "Hg (Sep 12, 3:00 PM)
Average86 °F54%29.89 "Hg
* Reported Sep 1 9:00 PM — Sep 16 9:00 PM, Cuiabá, Weather by CustomWeather, © 2014

Note: Actual official high and low records may vary slightly from our data, if they occured in-between our weather recording intervals... More about our weather records

Advertising

Cuiabá weather history for previous 24 hours

 ConditionsComfort  
Time TempWeatherWind HumidityBarometerVisibility
9:00 PM
Sep 16
82 °FClear.5 mph62%29.89 "Hg10 mi
8:00 PM84 °FClear.2 mph58%29.89 "Hg10 mi
7:00 PM86 °FClear.6 mph55%29.86 "Hg10 mi
6:00 PM88 °FClear.5 mph52%29.86 "Hg10 mi
5:00 PM91 °FSunny.9 mph44%29.86 "Hg10 mi
4:00 PM91 °FSunny.5 mph41%29.86 "Hg10 mi
3:00 PM91 °FSunny.10 mph41%29.86 "Hg10 mi
2:00 PM91 °FSunny.7 mph41%29.89 "Hg10 mi
1:00 PM88 °FSunny.6 mph49%29.92 "Hg10 mi
12:00 PM86 °FSunny.9 mph52%29.95 "Hg10 mi
11:00 AM82 °FSunny.8 mph58%30.01 "Hg10 mi
10:00 AM81 °FPassing clouds.8 mph58%30.01 "HgN/A
9:00 AM77 °FPartly sunny.7 mph69%30.04 "HgN/A
8:00 AM75 °FPartly sunny.7 mph65%30.01 "HgN/A
7:00 AM73 °FBroken clouds.10 mph74%30.01 "HgN/A
6:00 AM73 °FPartly sunny.6 mph65%29.98 "HgN/A
5:00 AM73 °FPassing clouds.5 mph78%29.95 "HgN/A
4:00 AM73 °FPassing clouds.7 mph78%29.95 "HgN/A
3:00 AM73 °FPassing clouds.8 mph78%29.95 "HgN/A
2:00 AM73 °FPassing clouds.10 mph78%29.95 "HgN/A
1:00 AM73 °FPassing clouds.6 mph78%29.98 "HgN/A
12:00 AM73 °FPassing clouds.8 mph78%30.01 "HgN/A
11:00 PM
Sep 15
75 °FPassing clouds.10 mph78%30.01 "HgN/A
10:00 PM77 °FPassing clouds.12 mph79%30.01 "HgN/A
9:00 PM79 °FPassing clouds.9 mph74%30.01 "HgN/A
Weather by CustomWeather, © 2014

See weather overviewHow to use our weather pages